FW6463 Weather Reports


Display with metric or nautical units.
time (UTC)temp
F
wind
direction
speed
MPH
gust
MPH
rain 1hr
in
rain 24hr
in
rain mn
in
humidity
%
barometer
mb
20260906091516 55 0.0 0.0 0.00 0.00 0.00 99 1017.9
20260906090521 55 0.0 0.0 0.00 0.00 0.00 99 1017.9
20260906085526 55 0.0 0.0 0.00 0.00 0.00 99 1017.9
20260906084531 55 0.0 0.0 0.00 0.00 0.00 99 1017.6
20260906083517 56 0.0 0.0 0.00 0.00 0.00 99 1017.8
20260906082522 55 0.0 0.0 0.00 0.00 0.00 99 1017.7
20260906081528 56 0.0 0.0 0.00 0.00 0.00 99 1017.6
20260906080532 56 0.0 0.0 0.00 0.00 0.00 99 1017.6
20260906075519 56 0.0 0.0 0.00 0.00 0.00 99 1017.6
20260906074525 56 0.0 0.0 0.00 0.00 0.00 99 1017.6
20260906073529 56 0.0 0.0 0.00 0.00 0.00 99 1017.6
20260906072516 56 0.0 1.0 0.00 0.00 0.00 99 1017.5
20260906071542 56 0.0 0.0 0.00 0.00 0.00 99 1017.4
20260906070526 56 0.0 0.0 0.00 0.00 0.00 99 1017.3
20260906065531 57 0.0 0.0 0.00 0.00 0.00 99 1017.4
20260906064518 57 0.0 0.0 0.00 0.00 0.00 99 1017.3
20260906063543 57 0.0 0.0 0.00 0.00 0.00 99 1017.4
20260906062528 57 182 1.0 2.0 0.00 0.00 0.00 99 1017.6
20260906061526 57 0.0 0.0 0.00 0.00 0.00 99 1017.6
20260906060519 57 0.0 0.0 0.00 0.00 0.00 99 1017.6
20260906055524 57 0.0 0.0 0.00 0.00 0.00 99 1017.6
20260906054523 58 0.0 0.0 0.00 0.00 0.00 99 1017.6
20260906053516 58 180 0.0 1.0 0.00 0.00 0.00 99 1017.8
20260906052521 58 180 0.0 1.0 0.00 0.00 0.00 99 1017.8
20260906051520 58 0.0 0.0 0.00 0.00 0.00 99 1017.8
20260906050519 58 0.0 0.0 0.00 0.00 0.00 99 1017.8
20260906045538 58 0.0 0.0 0.00 0.00 0.00 99 1017.8
20260906044537 58 0.0 0.0 0.00 0.00 0.00 99 1017.8
20260906043536 58 0.0 0.0 0.00 0.00 0.00 99 1017.6
20260906042533 59 0.0 0.0 0.00 0.00 0.00 99 1017.6
20260906041559 59 0.0 0.0 0.00 0.00 0.00 99 1017.7
20260906040525 59 143 1.0 3.0 0.00 0.00 0.00 99 1017.7
20260906035529 59 0.0 0.0 0.00 0.00 0.00 99 1017.6
20260906034537 59 0.0 0.0 0.00 0.00 0.00 99 1017.8
20260906033521 60 0.0 0.0 0.00 0.00 0.00 99 1017.6
20260906032526 60 158 0.0 2.0 0.00 0.00 0.00 99 1017.4
20260906031551 60 0.0 0.0 0.00 0.00 0.00 99 1017.4
20260906030517 60 0.0 0.0 0.00 0.00 0.00 99 1017.4
20260906025542 60 0.0 0.0 0.00 0.00 0.00 99 1017.3
20260906024528 61 0.0 0.0 0.00 0.00 0.00 99 1017.3
20260906023532 61 0.0 0.0 0.00 0.00 0.00 99 1017.3
20260906022519 61 0.0 0.0 0.00 0.00 0.00 99 1017.1
20260906021525 61 0.0 0.0 0.00 0.00 0.00 99 1017.1
20260906020529 62 0.0 0.0 0.00 0.00 0.00 99 1017.1
20260906015516 62 0.0 0.0 0.00 0.00 0.00 99 1017.0
20260906014521 62 0.0 0.0 0.00 0.00 0.00 99 1016.8
20260906013526 63 0.0 0.0 0.00 0.00 0.00 99 1016.5
20260906012530 63 0.0 0.0 0.00 0.00 0.00 99 1016.4
20260906011517 64 0.0 0.0 0.00 0.00 0.00 99 1016.5
20260906010522 64 0.0 0.0 0.00 0.00 0.00 99 1016.5
20260906005527 65 0.0 0.0 0.00 0.00 0.00 99 1016.5
20260906004532 65 0.0 0.0 0.00 0.00 0.00 99 1016.4
20260906003519 66 0.0 0.0 0.00 0.00 0.00 98 1016.3
20260906002544 67 0.0 0.0 0.00 0.00 0.00 98 1016.2
20260906001549 68 0.0 0.0 0.00 0.00 0.00 95 1016.2
20260906000516 69 0.0 0.0 0.00 0.00 0.00 93 1016.1
20260905235521 70 0.0 0.0 0.00 0.00 0.00 92 1015.9
20260905234526 71 0.0 0.0 0.00 0.00 0.00 89 1015.8
20260905233531 73 158 0.0 2.0 0.00 0.00 0.00 87 1015.6
20260905232518 76 0.0 0.0 0.00 0.00 0.00 83 1015.6
20260905231523 78 135 0.0 1.0 0.00 0.00 0.00 78 1015.6
20260905230528 81 135 0.0 1.0 0.00 0.00 0.00 75 1015.7
20260905225532 83 0.0 0.0 0.00 0.00 0.00 70 1015.5
20260905224519 84 180 0.0 1.0 0.00 0.00 0.00 69 1015.3
20260905223525 86 89 1.0 3.0 0.00 0.00 0.00 66 1015.4
20260905222529 87 310 1.0 2.0 0.00 0.00 0.00 62 1015.3
20260905221536 86 298 2.0 3.0 0.00 0.00 0.00 63 1015.2
20260905220521 88 318 1.0 2.0 0.00 0.00 0.00 61 1015.2
20260905215525 85 248 1.0 3.0 0.00 0.00 0.00 66 1015.2
20260905214530 86 197 2.0 5.0 0.00 0.00 0.00 65 1015.1
20260905213517 84 291 3.0 4.0 0.00 0.00 0.00 67 1015.1
20260905212522 82 283 2.0 5.0 0.00 0.00 0.00 70 1015.0
20260905211527 80 286 2.0 5.0 0.00 0.00 0.00 72 1015.0
20260905210526 82 343 4.0 7.0 0.00 0.00 0.00 71 1015.0
20260905205518 82 335 4.0 6.0 0.00 0.00 0.00 70 1014.9
20260905204524 82 231 3.0 6.0 0.00 0.00 0.00 69 1014.9
20260905203523 83 268 3.0 5.0 0.00 0.00 0.00 70 1015.0
20260905202515 82 8 2.0 4.0 0.00 0.00 0.00 72 1014.9
20260905201521 80 141 2.0 5.0 0.00 0.00 0.00 75 1015.0
20260905200539 82 13 3.0 4.0 0.00 0.00 0.00 73 1015.0
20260905195538 79 191 1.0 3.0 0.00 0.00 0.00 78 1015.1
20260905194557 81 23 1.0 2.0 0.00 0.00 0.00 78 1015.2
20260905193516 79 338 1.0 4.0 0.00 0.00 0.00 77 1015.3
20260905192515 80 196 2.0 3.0 0.00 0.00 0.00 74 1015.5
20260905191633 79 290 2.0 5.0 0.00 0.00 0.00 76 1015.6
20260905190519 80 300 3.0 5.0 0.00 0.00 0.00 74 1015.6
20260905185524 81 316 3.0 5.0 0.00 0.00 0.00 75 1015.6
20260905184529 83 311 4.0 5.0 0.00 0.00 0.00 74 1015.8
20260905183516 82 345 3.0 5.0 0.00 0.00 0.00 73 1015.7
20260905182521 81 284 4.0 5.0 0.00 0.00 0.00 73 1015.9
20260905181546 81 317 4.0 8.0 0.00 0.00 0.00 75 1015.9
20260905180530 79 2 3.0 5.0 0.00 0.00 0.00 79 1015.9
20260905175517 78 321 3.0 4.0 0.00 0.00 0.00 80 1016.0
20260905174522 78 188 2.0 3.0 0.00 0.00 0.00 81 1016.0
20260905173527 79 178 2.0 4.0 0.00 0.00 0.00 78 1016.2
20260905172553 79 232 3.0 4.0 0.00 0.00 0.00 79 1016.4
20260905171540 77 51 1.0 4.0 0.00 0.00 0.00 83 1016.5
20260905170524 76 347 1.0 2.0 0.00 0.00 0.00 81 1016.6
20260905165549 76 105 2.0 3.0 0.00 0.00 0.00 82 1016.7
20260905164516 78 266 2.0 3.0 0.00 0.00 0.00 78 1016.7
20260905163521 78 277 2.0 4.0 0.00 0.00 0.00 80 1016.9
20260905162526 78 307 2.0 4.0 0.00 0.00 0.00 77 1016.9
20260905161530 79 314 4.0 5.0 0.00 0.00 0.00 77 1017.0
20260905160517 79 312 3.0 5.0 0.00 0.00 0.00 77 1017.1
20260905155522 76 280 1.0 3.0 0.00 0.00 0.00 79 1017.3
20260905154528 77 240 3.0 4.0 0.00 0.00 0.00 81 1017.3
20260905153532 77 170 3.0 3.0 0.00 0.00 0.00 80 1017.3
20260905152520 75 199 1.0 2.0 0.00 0.00 0.00 82 1017.4
20260905151544 75 178 1.0 2.0 0.00 0.00 0.00 85 1017.4
20260905150529 74 162 2.0 3.0 0.00 0.00 0.00 86 1017.4
20260905145516 74 304 1.0 2.0 0.00 0.00 0.00 86 1017.4
20260905144541 75 180 1.0 2.0 0.00 0.00 0.00 85 1017.2
20260905143526 75 68 0.0 1.0 0.00 0.00 0.00 86 1017.1
20260905142530 76 0.0 0.0 0.00 0.00 0.00 85 1017.1
20260905141518 75 212 1.0 2.0 0.00 0.00 0.00 86 1016.9
20260905140523 76 97 1.0 2.0 0.00 0.00 0.00 85 1016.8
20260905135527 75 184 2.0 2.0 0.00 0.00 0.00 86 1016.9
20260905134532 75 264 1.0 3.0 0.00 0.00 0.00 85 1016.6
20260905133519 74 230 1.0 4.0 0.00 0.00 0.00 89 1016.6
20260905132524 73 280 1.0 3.0 0.00 0.00 0.00 91 1016.8
20260905131529 73 0.0 1.0 0.00 0.00 0.00 91 1016.8
20260905130516 73 0.0 0.0 0.00 0.00 0.00 91 1016.8
20260905125520 72 187 1.0 2.0 0.00 0.00 0.00 91 1016.6
20260905124526 72 165 0.0 2.0 0.00 0.00 0.00 93 1016.3
20260905123530 71 184 1.0 3.0 0.00 0.00 0.00 94 1016.2
20260905122518 71 192 2.0 4.0 0.00 0.00 0.00 95 1016.3
20260905121522 70 186 2.0 3.0 0.00 0.00 0.00 97 1016.3
20260905120527 69 178 1.0 2.0 0.00 0.00 0.00 99 1016.3
20260905115526 69 152 1.0 2.0 0.00 0.00 0.00 99 1016.4
20260905114519 69 180 0.0 2.0 0.00 0.00 0.00 99 1016.4
20260905113523 68 0.0 0.0 0.00 0.00 0.00 99 1016.2
20260905112542 68 0.0 0.0 0.00 0.00 0.00 99 1016.1
20260905111537 67 174 0.0 2.0 0.00 0.00 0.00 99 1016.1
20260905110521 68 151 0.0 2.0 0.00 0.00 0.00 99 1016.1
20260905105519 67 262 1.0 3.0 0.00 0.00 0.00 99 1015.9
20260905104519 67 0.0 0.0 0.00 0.00 0.00 99 1015.8
20260905103517 67 0.0 0.0 0.00 0.00 0.00 99 1015.3
20260905102517 67 0.0 0.0 0.00 0.00 0.00 99 1015.3
20260905101536 67 0.0 0.0 0.00 0.00 0.00 99 1015.3
20260905100532 67 0.0 0.0 0.00 0.00 0.00 99 1015.2
20260905095520 67 0.0 1.0 0.00 0.00 0.00 99 1015.0
20260905094524 67 158 0.0 2.0 0.00 0.00 0.00 99 1015.2
20260905093529 67 161 1.0 2.0 0.00 0.00 0.00 99 1015.1
20260905092536 67 0.0 0.0 0.00 0.00 0.00 99 1015.2